TimeAKDT,TemperatureF,Dew PointF,Humidity,Sea Level PressureIn,VisibilityMPH,Wind Direction,Wind SpeedMPH,Gust SpeedMPH,PrecipitationIn,Events,Conditions,WindDirDegrees,DateUTC
12:53 AM,48.9,45.0,86,29.78,10.0,Calm,Calm,-,N/A,,Mostly Cloudy,0,2012-09-14 08:53:00
1:53 AM,48.0,43.0,83,29.78,10.0,Calm,Calm,-,N/A,,Overcast,0,2012-09-14 09:53:00
2:53 AM,48.0,44.1,86,29.79,10.0,Calm,Calm,-,N/A,,Overcast,0,2012-09-14 10:53:00
3:00 AM,48.2,44.6,87,29.79,10.0,Calm,Calm,-,N/A,,Mostly Cloudy,0,2012-09-14 11:00:00
3:08 AM,48.2,44.6,87,29.79,7.0,Calm,Calm,-,0.01,Rain,Rain,0,2012-09-14 11:08:00
3:16 AM,48.2,44.6,87,29.79,9.0,Calm,Calm,-,0.01,Rain,Light Rain,0,2012-09-14 11:16:00
3:53 AM,48.0,46.0,93,29.79,10.0,SE,4.6,-,0.01,,Overcast,140,2012-09-14 11:53:00
4:53 AM,46.9,45.0,93,29.79,10.0,Calm,Calm,-,N/A,,Overcast,0,2012-09-14 12:53:00
5:53 AM,46.9,44.1,90,29.78,10.0,Calm,Calm,-,0.00,,Overcast,0,2012-09-14 13:53:00
6:53 AM,46.9,45.0,93,29.78,7.0,Calm,Calm,-,0.05,Rain,Light Rain,0,2012-09-14 14:53:00
7:53 AM,46.9,45.0,93,29.79,10.0,ENE,4.6,-,0.02,Rain,Light Rain,60,2012-09-14 15:53:00
8:53 AM,46.9,46.0,97,29.79,10.0,Calm,Calm,-,0.01,Rain,Light Rain,0,2012-09-14 16:53:00
9:21 AM,48.2,46.4,93,29.79,10.0,Calm,Calm,-,0.00,Rain,Light Rain,0,2012-09-14 17:21:00
9:53 AM,48.9,46.9,93,29.80,10.0,Calm,Calm,-,0.01,Rain,Light Rain,0,2012-09-14 17:53:00
10:53 AM,48.9,46.0,90,29.80,10.0,Calm,Calm,-,0.00,Rain,Light Rain,0,2012-09-14 18:53:00
11:33 AM,48.2,46.4,93,29.81,7.0,Calm,Calm,-,0.01,Rain,Rain,0,2012-09-14 19:33:00
11:53 AM,48.9,46.0,90,29.82,6.0,Calm,Calm,-,0.04,Rain,Light Rain,0,2012-09-14 19:53:00
12:53 PM,51.1,46.9,86,29.81,10.0,NE,4.6,-,0.01,,Mostly Cloudy,50,2012-09-14 20:53:00
1:53 PM,51.1,46.9,86,29.81,10.0,NE,3.5,-,N/A,,Overcast,40,2012-09-14 21:53:00
2:53 PM,51.1,48.0,89,29.81,8.0,NW,3.5,-,0.02,Rain,Light Rain,310,2012-09-14 22:53:00
3:53 PM,52.0,46.9,83,29.80,10.0,North,4.6,-,0.01,,Mostly Cloudy,350,2012-09-14 23:53:00
4:53 PM,53.1,45.0,74,29.80,10.0,NNW,3.5,-,N/A,,Mostly Cloudy,330,2012-09-15 00:53:00
5:53 PM,53.1,46.9,80,29.80,10.0,North,6.9,-,0.00,Rain,Light Rain,360,2012-09-15 01:53:00
6:53 PM,52.0,46.0,80,29.79,10.0,Variable,3.5,-,0.00,Rain,Light Rain,0,2012-09-15 02:53:00
7:53 PM,51.1,46.0,83,29.79,10.0,NNW,4.6,-,0.01,Rain,Light Rain,340,2012-09-15 03:53:00
8:53 PM,51.1,46.9,86,29.80,10.0,Calm,Calm,-,0.00,Rain,Light Rain,0,2012-09-15 04:53:00
9:53 PM,50.0,45.0,83,29.80,10.0,NW,3.5,-,0.00,Rain,Light Rain,310,2012-09-15 05:53:00
10:53 PM,50.0,46.0,86,29.80,10.0,WNW,4.6,-,0.01,Rain,Light Rain,300,2012-09-15 06:53:00
11:53 PM,48.9,44.1,83,29.79,10.0,Calm,Calm,-,0.01,,Overcast,0,2012-09-15 07:53:00